TimeCST,TemperatureF,Dew PointF,Humidity,Sea Level PressureIn,VisibilityMPH,Wind Direction,Wind SpeedMPH,Gust SpeedMPH,PrecipitationIn,Events,Conditions,WindDirDegrees,DateUTC
12:04 AM,12.2,10.4,92,29.92,0.5,Calm,Calm,-,N/A,Fog,Light Freezing Fog,0,2013-12-28 06:04:00
12:22 AM,12.2,8.6,85,29.92,1.5,Calm,Calm,-,N/A,,Clear,0,2013-12-28 06:22:00
12:24 AM,12.2,8.6,85,29.92,3.0,Calm,Calm,-,N/A,,Clear,0,2013-12-28 06:24:00
12:37 AM,12.2,8.6,85,29.92,10.0,Calm,Calm,-,N/A,,Scattered Clouds,0,2013-12-28 06:37:00
12:51 AM,12.2,8.6,85,29.91,2.5,Calm,Calm,-,N/A,,Mostly Cloudy,0,2013-12-28 06:51:00
12:53 AM,12.0,8.1,84,29.98,1.8,Calm,Calm,-,N/A,,Mostly Cloudy,0,2013-12-28 06:53:00
1:03 AM,12.2,8.6,85,29.91,3.0,Calm,Calm,-,N/A,,Haze,0,2013-12-28 07:03:00
1:53 AM,12.0,8.1,84,29.99,10.0,Calm,Calm,-,N/A,,Overcast,0,2013-12-28 07:53:00
2:53 AM,18.0,14.0,84,29.97,6.0,SSE,3.5,-,N/A,,Overcast,160,2013-12-28 08:53:00
2:56 AM,19.4,15.8,86,29.91,1.8,Calm,Calm,-,N/A,,Overcast,0,2013-12-28 08:56:00
2:59 AM,19.4,17.6,93,29.91,0.8,Calm,Calm,-,N/A,,Mist,0,2013-12-28 08:59:00
3:53 AM,25.0,21.9,88,29.94,0.2,Calm,Calm,-,N/A,Fog,Light Freezing Fog,0,2013-12-28 09:53:00
4:53 AM,25.0,23.0,92,29.93,0.5,Calm,Calm,-,N/A,Fog,Light Freezing Fog,0,2013-12-28 10:53:00
5:25 AM,26.6,23.0,86,29.86,1.0,SSE,3.5,-,N/A,,Overcast,150,2013-12-28 11:25:00
5:42 AM,24.8,23.0,93,29.86,1.5,SE,3.5,-,N/A,,Overcast,140,2013-12-28 11:42:00
5:53 AM,25.0,21.9,88,29.91,2.0,SE,5.8,-,N/A,,Overcast,140,2013-12-28 11:53:00
6:06 AM,24.8,21.2,86,29.86,4.0,South,3.5,-,N/A,,Overcast,170,2013-12-28 12:06:00
6:32 AM,24.8,21.2,86,29.85,1.8,SSE,3.5,-,N/A,,Overcast,160,2013-12-28 12:32:00
6:39 AM,24.8,21.2,86,29.84,0.8,SSE,3.5,-,N/A,,Overcast,160,2013-12-28 12:39:00
6:47 AM,24.8,21.2,86,29.85,1.2,Calm,Calm,-,N/A,,Overcast,0,2013-12-28 12:47:00
6:53 AM,24.1,21.9,91,29.91,2.0,South,4.6,-,N/A,,Overcast,190,2013-12-28 12:53:00
7:05 AM,24.8,21.2,86,29.84,1.8,South,4.6,-,N/A,,Overcast,170,2013-12-28 13:05:00
7:13 AM,24.8,21.2,86,29.84,2.5,Calm,Calm,-,N/A,,Overcast,0,2013-12-28 13:13:00
7:20 AM,24.8,21.2,86,29.84,4.0,Calm,Calm,-,N/A,,Overcast,0,2013-12-28 13:20:00
7:47 AM,24.8,21.2,86,29.83,1.8,South,3.5,-,N/A,,Overcast,190,2013-12-28 13:47:00
7:48 AM,25.0,21.9,88,29.89,1.8,South,3.5,-,N/A,,Overcast,190,2013-12-28 13:48:00
8:39 AM,24.8,23.0,93,29.83,2.5,Calm,Calm,-,N/A,,Overcast,0,2013-12-28 14:39:00
8:53 AM,25.0,23.0,92,29.89,4.0,SE,3.5,-,N/A,,Overcast,140,2013-12-28 14:53:00
9:33 AM,26.6,24.8,93,29.82,2.0,SSE,3.5,-,N/A,,Overcast,160,2013-12-28 15:33:00
9:41 AM,26.6,24.8,93,29.82,1.5,SSE,3.5,-,N/A,,Overcast,160,2013-12-28 15:41:00
9:53 AM,27.0,25.0,92,29.88,0.8,SSE,3.5,-,N/A,,Overcast,150,2013-12-28 15:53:00
10:15 AM,26.6,24.8,93,29.81,1.0,South,5.8,-,N/A,,Overcast,170,2013-12-28 16:15:00
10:27 AM,28.4,26.6,93,29.80,1.2,SSE,6.9,-,N/A,,Overcast,160,2013-12-28 16:27:00
10:40 AM,28.4,26.6,93,29.79,2.0,SSE,5.8,-,N/A,,Overcast,160,2013-12-28 16:40:00
10:53 AM,28.9,27.0,92,29.85,3.0,South,4.6,-,N/A,,Overcast,190,2013-12-28 16:53:00
11:53 AM,30.9,30.0,96,29.83,4.0,Calm,Calm,-,N/A,,Overcast,0,2013-12-28 17:53:00
12:13 PM,32.0,30.2,93,29.75,5.0,Calm,Calm,-,N/A,,Overcast,0,2013-12-28 18:13:00
12:53 PM,32.0,30.0,92,29.79,6.0,ENE,4.6,-,N/A,,Overcast,60,2013-12-28 18:53:00
1:53 PM,32.0,28.9,88,29.78,5.0,ENE,5.8,-,N/A,,Overcast,70,2013-12-28 19:53:00
2:09 PM,32.0,30.2,93,29.70,4.0,East,6.9,-,N/A,,Overcast,80,2013-12-28 20:09:00
2:53 PM,32.0,30.0,92,29.74,5.0,ENE,5.8,-,N/A,,Overcast,60,2013-12-28 20:53:00
3:53 PM,32.0,28.9,88,29.75,4.0,ENE,6.9,-,N/A,,Overcast,60,2013-12-28 21:53:00
4:53 PM,30.9,28.9,92,29.77,5.0,NNE,4.6,-,N/A,,Overcast,20,2013-12-28 22:53:00
5:34 PM,30.2,28.4,93,29.74,7.0,NNE,8.1,-,N/A,,Overcast,30,2013-12-28 23:34:00
5:53 PM,30.9,28.9,92,29.80,8.0,NNE,3.5,-,N/A,,Overcast,20,2013-12-28 23:53:00
6:22 PM,28.4,26.6,93,29.76,6.0,Variable,6.9,-,N/A,,Overcast,0,2013-12-29 00:22:00
6:53 PM,28.9,26.1,89,29.81,10.0,Variable,6.9,-,N/A,,Overcast,0,2013-12-29 00:53:00
7:50 PM,28.4,24.8,86,29.78,9.0,NNE,13.8,23.0,N/A,,Overcast,20,2013-12-29 01:50:00
7:53 PM,28.0,24.1,85,29.83,9.0,NNE,12.7,23.0,N/A,,Overcast,30,2013-12-29 01:53:00
8:53 PM,24.1,19.9,84,29.88,6.0,North,10.4,23.0,0.00,,Overcast,10,2013-12-29 02:53:00
9:50 PM,21.2,15.8,80,29.86,10.0,NNE,17.3,28.8,0.00,,Overcast,30,2013-12-29 03:50:00
9:53 PM,21.0,16.0,81,29.92,9.0,NNE,11.5,28.8,0.00,,Overcast,30,2013-12-29 03:53:00
10:27 PM,19.4,14.0,80,29.88,2.5,NNE,12.7,29.9,0.00,Snow,Light Snow,30,2013-12-29 04:27:00
10:33 PM,17.6,12.2,79,29.88,3.0,NNE,12.7,23.0,0.00,Snow,Light Snow,20,2013-12-29 04:33:00
10:44 PM,17.6,12.2,79,29.89,2.0,NNE,11.5,23.0,0.00,Snow,Light Snow,20,2013-12-29 04:44:00
10:51 PM,17.6,12.2,79,29.90,1.8,NNE,10.4,21.9,0.00,Snow,Light Snow,20,2013-12-29 04:51:00
10:53 PM,18.0,12.9,81,29.96,2.0,NNE,15.0,21.9,0.00,Snow,Light Snow,30,2013-12-29 04:53:00
11:04 PM,17.6,12.2,79,29.91,4.0,NNE,8.1,18.4,0.00,Snow,Light Snow,20,2013-12-29 05:04:00
11:23 PM,17.6,12.2,79,29.92,2.5,NNE,8.1,18.4,0.00,Snow,Light Snow,20,2013-12-29 05:23:00
11:32 PM,17.6,12.2,79,29.93,3.0,Variable,5.8,-,0.00,Snow,Light Snow,0,2013-12-29 05:32:00
11:53 PM,16.0,10.9,81,30.01,4.0,NNE,9.2,20.7,0.00,Snow,Light Snow,20,2013-12-29 05:53:00